Regional Weather Roundup
Issued by NWS Green Bay, WI

Home | Current Version | Previous Version | Graphics & Text | Print | Product List | Glossary Off
Versions: 1 2 3 4 5 6 7 8 9 10 11 12 13 14 15 16 17 18 19 20 21 22 23 24 25 26 27 28 29 30 31 32 33 34 35 36 37 38 39 40 41 42 43 44 45 46 47 48 49 50

000
ASUS43 KGRB 281610
RWRGRB

NORTH-CENTRAL AND NORTHEAST WISCONSIN REGIONAL WEATHER ROUNDUP
NATIONAL WEATHER SERVICE GREEN BAY WI
1000 AM CST SAT FEB 28 2015

WIZ005-009-010>012-018-019-281700-
NORTH CENTRAL WISCONSIN

CITY           SKY/WX    TMP DP  RH WIND       PRES   REMARKS
IRONWOOD       SUNNY     10   1  67 SW8       30.43S WCI  -1
MANITOWISH WTR SUNNY      7  -1  70 SW7       30.45S WCI  -5
ARBOR VITAE    SUNNY      9   1  68 S10       30.46S WCI  -5
EAGLE RIVER    SUNNY      8  -3  63 SW8       30.47S WCI  -5
LAND O LAKES   SUNNY     11  -1  59 S6        30.45F WCI   1
RHINELANDER    SUNNY      5  -1  76 SW6       30.49S WCI  -6
PHILLIPS         N/A      6  -1  72 S7        30.48F WCI  -6
ANTIGO         SUNNY      2  -3  79 CALM      30.53S
TOMAHAWK       SUNNY      7  -1  70 CALM      30.51F
MERRILL        SUNNY      6  -2  67 SW3       30.54S
$$

WIZ013-073-281700-
NORTHEAST WISCONSIN

CITY           SKY/WX    TMP DP  RH WIND       PRES   REMARKS
IRON MOUNTAIN  SUNNY     10  -1  61 CALM      30.51F
MARINETTE      SUNNY     10   0  61 SW5       30.62S WCI   2
OCONTO         SUNNY     11   0  61 W6        30.64S WCI   2
$$

WIZ017-030-035>037-045-281700-
CENTRAL WISCONSIN

CITY           SKY/WX    TMP DP  RH WIND       PRES   REMARKS
MEDFORD        SUNNY      2  -2  81 S3        30.51F
WAUSAU         SUNNY      4  -2  76 S7        30.55F WCI  -8
MOSINEE        SUNNY      3  -2  78 CALM      30.57S
MARSHFIELD     SUNNY      4  -3  73 CALM      30.55F
WISC RAPIDS    SUNNY      6  -4  63 SW3       30.61S
STEVENS POINT  SUNNY      6  -4  65 S5        30.59S WCI  -3
WAUPACA        SUNNY     11  -2  54 CALM      30.63S
SHAWANO        SUNNY     10  -1  60 SW3       30.63S
CLINTONVILLE   SUNNY      9   0  66 SW3       30.62F
$$

WIZ038-039-048-051-281700-
FOX VALLEY

CITY           SKY/WX    TMP DP  RH WIND       PRES   REMARKS
NWS GREEN BAY  SUNNY      9   0  67 S8        30.65S WCI  -3
APPLETON       SUNNY      9  -2  61 SW6       30.63S WCI  -1
OSHKOSH        SUNNY      8  -2  63 S6        30.64F WCI  -2
FOND DU LAC    SUNNY     10  -2  58 SW8       30.65F WCI  -2
$$

WIZ022-050-052-281700-
EAST CENTRAL WISCONSIN

CITY           SKY/WX    TMP DP  RH WIND       PRES   REMARKS
STURGEON BAY   SUNNY     10   0  61 W8        30.64S WCI  -1
MANITOWOC      SUNNY     16   0  49 SW7       30.66F WCI   6
SHEBOYGAN      SUNNY     11  -3  53 SW6       30.66S WCI   1
$$

LMZ563-521-522-541>543-281700-
LAKESHORE

STATION/POSITION TIME  TEMP    WIND        PRES    VSBY  WAVE
                       AIR SEA DIR/SP/G                  HT/PER
                 (UTC) (F)     (DEG/KT/KT) (MB)    (MI)  (FT/S)
SHEBOYGAN LKSHOR 1600   11     210/  6/  7 1040.5S
KEWAUNEE LKSHORE 1600   11     270/  2/  6 1036.8R
NORTHPORT PIER   1600   11     220/  5/ 13 1036.9S
STURGEON BAY CG  1600   12     250/  4     1037.5      6   0
CHAMBERS ISLAND  1600    8     190/  4/ 11 1036.9S
MENOMINEE LKSHOR 1600   10     230/  6     1037.5S
$$


USA.gov is the U.S. government's official web portal to all federal, state and local government web resources and services.